Theta_e
329 330 331 332 331 329 329 329 328 328 328 328 328 327 326 325 326 326 325 323 323 323 322 321 319 318 317 316 315 315 314 313 313 312 311 310 310 310 309 308 307 307 307 307 308 308 306 305 305 306 307 306 306 306 306 306 306 305 305 304 303 303 303 302 300 299 301 303 303 302 304 305 303 304 304 304 305 305 305 305 305 304 304 304 304
329 330 331 330 329 329 328 329 328 327 328 328 326 325 324 325 325 323 323 323 323 323 321 320 319 317 316 315 315 314 313 313 312 311 310 309 309 310 309 308 307 307 307 306 307 308 307 305 304 306 306 305 306 305 305 305 305 303 303 303 302 302 303 302 300 299 298 301 301 303 303 304 302 304 303 303 304 305 304 305 305 305 304 304 304
330 331 330 329 329 328 328 327 327 328 328 327 325 324 324 324 324 322 321 321 323 322 321 320 318 317 316 315 314 313 312 312 312 311 310 308 308 309 309 308 307 306 306 306 306 306 306 305 304 306 306 305 305 305 306 305 305 304 303 303 302 303 303 303 301 299 299 298 301 301 302 303 302 301 303 304 304 304 304 304 304 305 305 305 304
328 329 329 329 329 328 326 326 327 327 326 324 324 324 323 323 323 322 321 321 321 322 321 319 318 317 315 314 313 312 312 312 311 310 309 308 308 307 308 308 308 307 306 306 306 306 305 305 305 305 305 304 304 304 304 305 304 304 303 303 303 302 303 303 302 301 300 298 300 300 301 301 301 302 303 304 304 303 304 304 305 305 305 305 305
328 327 327 328 328 327 326 326 326 325 324 324 324 323 323 322 321 320 319 319 319 320 320 319 318 316 315 313 312 312 311 311 310 310 310 310 309 308 308 308 308 308 308 307 307 306 306 306 305 305 305 303 303 303 304 305 304 304 303 303 302 303 303 302 302 302 300 299 299 300 302 302 302 302 302 301 302 303 304 303 303 304 304 305 305
328 325 326 325 325 325 325 326 325 324 324 324 323 322 321 321 320 319 318 317 318 319 319 319 318 316 315 313 313 312 311 311 310 309 309 309 310 309 309 308 307 307 308 308 307 308 307 306 306 306 305 304 303 303 304 304 304 303 303 303 303 303 303 303 303 302 301 299 299 299 301 300 301 301 302 302 300 300 301 303 303 304 303 303 303
326 324 324 324 324 325 325 326 325 324 323 323 322 321 320 320 318 316 316 316 317 318 319 318 318 316 315 314 312 312 311 311 310 310 309 309 308 308 308 308 308 309 308 308 309 309 308 308 307 307 305 304 304 303 303 304 303 303 303 303 303 303 302 302 302 301 301 300 299 299 299 300 301 299 301 303 302 301 300 300 300 302 303 302 301
324 323 321 322 322 324 326 325 323 322 321 320 319 318 318 317 316 316 315 315 316 317 318 318 317 317 315 314 313 313 312 311 310 310 309 309 308 308 308 308 307 308 309 309 310 310 309 308 307 307 307 306 305 305 305 303 303 303 303 303 303 303 302 302 302 301 300 300 298 297 298 298 299 301 301 301 300 300 301 300 298 299 301 302 302
323 322 321 322 322 324 323 321 321 320 318 317 315 315 315 315 314 314 314 315 317 317 317 317 315 315 314 314 312 312 311 311 310 310 309 308 309 308 308 308 307 308 308 309 310 310 309 309 309 308 310 308 306 306 305 305 304 302 303 304 303 303 302 302 301 300 300 299 298 299 297 296 297 298 297 297 297 297 300 301 299 300 301 301 301
322 322 322 323 323 321 319 318 316 316 315 315 314 314 314 314 313 313 313 313 315 315 316 316 315 314 313 312 312 312 311 311 308 303 304 308 309 308 309 309 308 308 308 308 308 309 310 310 311 308 306 305 303 299 298 299 302 305 304 304 303 303 302 301 300 300 300 298 298 298 296 296 296 297 297 298 300 300 300 299 298 299 300 299 300
322 321 322 322 320 319 317 315 314 313 313 313 312 312 313 314 314 312 312 312 313 314 314 314 314 313 312 311 311 311 310 308 298 296 297 300 308 309 308 308 309 309 308 307 307 307 308 309 309 307 306 304 303 296 296 296 295 295 295 297 299 304 303 301 300 301 299 298 298 298 297 297 297 298 298 298 300 299 298 298 298 299 297 295 294
322 322 321 319 318 317 316 315 313 312 312 311 311 312 313 313 313 312 311 311 312 313 313 313 313 312 312 311 311 311 310 301 294 295 295 296 302 309 309 308 308 308 308 308 308 307 307 308 309 310 309 308 306 304 301 296 295 295 294 294 293 293 294 301 302 301 301 299 298 298 298 298 297 298 298 299 299 299 299 298 298 297 296 295 295
322 322 320 318 317 317 316 315 313 311 311 310 311 312 312 312 311 310 310 311 311 311 311 311 311 311 311 310 310 310 309 295 294 294 294 294 296 304 307 308 307 307 307 307 307 307 307 307 308 309 307 306 307 306 304 303 298 297 297 297 296 295 292 291 293 302 304 301 300 299 299 300 298 299 301 301 301 298 298 296 298 298 297 296 297
321 319 319 318 317 316 315 313 311 311 310 310 309 309 310 310 310 310 309 310 310 310 310 310 310 310 310 310 309 309 307 296 294 294 294 293 294 300 306 307 307 306 306 307 307 307 307 307 306 307 308 308 308 307 306 305 305 305 305 305 304 301 296 294 294 294 299 303 302 300 301 303 300 302 303 303 300 298 297 296 299 298 298 298 299
320 319 319 318 317 316 314 312 310 310 309 308 308 307 307 308 308 308 308 309 309 309 309 308 308 309 309 309 308 307 306 294 293 293 292 292 293 298 306 305 305 305 305 306 307 307 307 308 308 307 307 307 308 307 307 306 306 305 305 305 305 305 306 306 305 305 304 304 304 303 303 303 303 303 303 303 303 302 302 301 301 301 301 300 300
319 318 319 317 316 315 313 311 309 308 308 307 306 305 305 306 305 306 306 307 307 308 308 308 307 307 307 307 307 306 303 292 292 292 292 292 294 305 305 305 305 304 304 304 304 305 305 307 308 307 307 307 302 295 301 307 306 304 303 304 304 305 305 301 296 297 303 305 305 304 303 301 296 301 300 301 302 303 303 301 303 301 299 296 295
319 318 318 317 315 314 312 310 308 307 307 306 306 305 305 306 305 305 304 304 304 305 306 306 307 306 305 306 306 305 302 294 291 292 292 292 297 305 305 304 304 304 304 304 304 304 304 305 307 307 307 307 298 292 294 299 305 304 303 303 303 304 303 305 296 293 292 292 291 291 291 292 292 293 292 292 297 301 302 298 298 300 296 295 295
320 318 318 316 315 314 312 310 308 307 307 307 307 307 306 306 305 305 304 303 304 304 305 304 305 305 305 305 306 304 303 296 291 292 292 293 299 304 304 304 304 304 303 304 305 306 304 299 301 306 307 306 292 292 292 301 305 304 303 302 302 301 303 304 305 303 292 292 292 291 292 293 293 294 293 293 294 298 302 297 300 299 297 296 294
319 318 318 315 315 313 312 311 309 308 307 307 307 306 304 303 304 305 304 304 303 303 303 303 303 303 304 305 302 304 303 297 291 291 292 292 300 305 304 304 303 303 302 302 304 304 303 300 298 301 306 301 290 292 291 299 306 304 303 303 301 301 301 304 304 303 304 304 304 305 302 301 305 305 303 294 296 299 303 302 301 299 296 296 296
318 318 316 314 314 312 311 310 309 307 306 306 306 306 305 303 302 302 302 301 300 300 301 302 301 301 302 303 302 304 302 300 296 291 292 292 295 304 304 303 302 302 302 301 301 303 303 303 298 290 290 290 291 291 292 292 306 305 304 303 302 300 303 304 304 303 302 301 302 303 303 303 304 305 305 305 305 304 303 303 303 301 299 297 297
315 314 314 313 313 312 312 310 309 308 307 306 306 304 303 301 300 299 299 298 299 299 300 300 301 300 301 302 302 303 303 301 297 291 292 292 292 297 303 303 302 302 301 301 301 302 302 302 303 292 289 290 290 290 291 291 295 307 305 304 304 304 301 303 301 297 302 302 302 301 301 301 301 301 301 301 301 303 303 304 303 303 301 298 297
314 313 313 312 311 311 310 308 307 307 307 306 303 302 301 301 300 300 299 299 298 298 298 299 299 299 300 300 301 301 301 299 299 292 291 291 292 293 302 304 303 302 301 301 301 301 302 302 302 294 289 290 290 290 290 291 291 304 305 291 289 290 302 303 303 303 301 300 300 299 299 299 299 299 298 299 299 300 303 303 304 304 303 302 300
314 312 311 310 310 309 308 306 305 306 305 305 303 302 302 302 301 300 299 298 297 296 297 297 298 298 298 299 300 301 300 299 295 297 291 291 291 291 294 299 293 303 301 300 300 301 302 303 300 292 289 289 289 289 290 289 294 300 288 289 290 289 295 302 301 302 300 299 299 299 299 299 298 297 297 297 299 301 301 302 302 303 303 304 303
313 311 309 309 308 308 308 307 306 306 305 304 303 302 302 302 301 300 299 297 296 295 296 296 297 297 297 298 299 299 301 300 295 294 295 290 290 290 291 292 293 302 302 301 301 300 301 302 299 289 289 289 289 289 290 293 296 288 289 288 289 292 301 301 300 300 299 298 298 298 298 298 298 298 297 299 299 301 301 301 302 302 301 301 303
311 309 310 309 308 308 308 308 306 306 305 304 302 301 300 300 298 299 299 298 296 295 295 296 296 296 297 297 297 299 300 301 300 295 292 291 290 290 290 290 291 293 302 302 302 302 297 291 288 289 289 289 288 290 291 290 288 289 289 289 294 301 301 300 300 300 299 297 296 298 298 298 298 298 300 301 301 303 302 302 303 304 304 303 301
309 309 309 308 308 308 307 306 306 305 305 304 303 302 300 300 300 299 300 299 296 296 296 296 296 297 297 297 298 298 299 300 300 300 296 294 293 290 290 290 291 292 297 300 294 291 289 289 289 288 289 292 300 300 300 299 289 289 288 292 302 299 299 299 299 298 298 297 296 296 297 298 298 300 300 300 301 298 299 298 298 298 299 298 298
308 308 308 308 308 308 305 304 304 304 304 304 303 302 301 301 301 300 300 299 297 297 296 295 296 297 297 298 298 298 298 299 300 301 300 299 299 297 296 296 292 292 298 298 294 297 295 295 296 293 293 289 292 292 294 292 296 298 299 299 300 299 299 299 299 298 298 297 296 297 297 298 299 299 299 298 298 298 299 297 297 297 297 297 297
309 309 309 308 308 306 304 296 300 302 302 303 301 301 301 301 300 299 299 299 298 297 296 296 296 297 298 298 298 298 298 299 300 300 300 300 300 299 300 300 300 300 300 301 302 302 300 293 293 298 298 299 298 299 299 299 298 297 299 299 299 299 297 293 295 299 298 298 297 297 297 298 298 297 297 297 297 297 298 298 296 296 296 297 296
309 309 309 308 306 304 303 302 302 302 302 302 301 301 300 300 299 299 300 300 300 298 297 298 298 299 299 299 298 299 299 299 300 296 301 295 298 300 300 300 301 301 298 294 300 300 299 298 299 298 299 294 295 298 298 298 297 298 299 299 299 299 299 298 298 298 299 297 296 297 296 298 297 297 296 297 297 297 298 298 299 297 297 298 295
310 309 309 308 306 303 302 303 303 302 302 300 299 298 291 294 299 300 299 295 293 293 294 299 300 300 301 302 303 301 301 302 295 293 293 292 292 293 294 294 294 298 293 290 296 299 299 296 297 296 296 297 296 295 295 296 297 296 297 293 296 298 298 297 297 298 297 297 296 294 297 295 297 297 296 295 297 298 297 293 296 297 296 295 294
308 308 307 306 303 303 303 303 302 302 302 301 300 298 298 298 290 291 293 293 292 291 291 291 293 294 300 302 301 294 293 293 292 292 291 291 291 291 291 290 289 289 289 292 294 295 296 296 296 296 296 297 294 297 295 295 294 294 295 296 297 297 293 297 298 296 296 293 294 295 293 296 295 296 296 296 296 296 297 298 298 298 295 295 295
308 307 306 304 300 300 303 302 302 301 301 302 301 299 298 297 297 291 290 291 290 290 290 290 290 291 292 296 300 300 292 291 292 291 291 291 290 290 290 289 288 288 288 291 293 294 296 296 296 295 297 296 295 295 296 296 295 295 295 293 294 296 295 296 297 297 295 295 294 293 294 294 295 294 295 294 292 295 296 295 296 295 295 296 296
308 307 306 303 302 301 302 302 301 302 301 300 300 300 299 298 297 295 293 289 289 289 289 290 290 290 291 291 292 294 294 293 291 291 291 291 290 290 289 289 288 288 288 291 294 295 295 297 297 298 297 295 297 297 297 297 296 296 296 295 294 295 296 298 294 296 294 295 294 294 294 293 293 293 292 293 294 292 294 293 295 295 295 294 292
310 308 306 305 305 304 303 302 302 301 300 300 301 301 300 299 298 295 293 292 292 291 289 289 290 290 290 290 291 291 291 291 291 291 290 290 290 289 289 290 288 288 290 294 294 293 295 296 296 297 297 297 297 296 296 296 297 296 295 295 295 296 296 298 296 294 294 294 294 293 293 294 293 293 293 293 294 294 293 293 293 292 293 293 293
309 300 294 299 308 307 306 305 303 302 300 300 300 299 299 298 298 295 295 293 293 293 294 293 290 290 293 291 290 290 290 290 290 290 290 290 289 289 290 293 290 290 292 295 295 295 295 295 296 296 296 296 296 296 296 297 296 295 295 295 295 295 295 294 294 295 293 295 294 293 293 292 293 291 291 291 291 292 292 292 292 294 293 292 292
309 307 305 304 306 307 307 306 304 302 301 300 300 299 298 297 296 296 295 296 296 296 294 296 295 291 289 291 290 289 289 289 290 290 289 289 289 289 293 293 294 294 294 295 295 295 296 297 296 296 296 296 297 296 296 295 296 295 295 295 293 294 293 293 292 292 292 292 293 292 291 292 291 290 291 291 292 291 292 292 292 292 292 292 292
308 306 305 306 306 305 305 305 304 303 296 298 298 299 298 298 296 296 295 295 295 296 296 296 296 295 292 294 291 289 288 289 289 289 289 289 288 292 297 297 297 297 295 296 296 296 296 296 297 297 297 296 296 296 297 296 296 296 294 295 295 294 293 293 293 291 292 291 291 291 291 290 291 291 290 289 290 290 291 291 291 290 290 289 288
309 308 308 307 306 305 305 304 303 295 299 300 300 299 297 296 296 296 294 295 295 294 295 295 293 295 294 295 295 295 291 289 288 288 288 288 289 293 297 297 297 297 297 297 297 297 296 297 298 297 297 297 297 298 296 297 296 296 296 295 292 293 291 291 288 290 290 291 291 291 291 291 291 291 290 290 289 289 290 290 290 290 290 289 289
308 299 295 294 297 306 305 302 299 299 298 298 299 298 296 295 294 294 295 294 293 294 294 295 294 294 295 296 295 295 292 293 292 292 292 292 293 294 294 295 295 296 297 298 297 296 297 297 297 298 297 298 297 298 297 296 297 294 296 294 293 293 292 292 292 292 292 292 292 292 292 292 292 292 291 291 290 290 290 289 290 290 289 289 290
302 301 295 292 299 301 302 300 300 299 297 297 297 297 295 295 295 294 294 294 293 293 294 294 293 294 295 295 294 294 294 293 293 294 294 293 293 294 295 295 296 296 296 297 297 297 298 297 298 298 298 298 297 297 297 297 297 295 295 292 293 293 293 292 293 293 293 293 293 293 292 292 292 292 291 291 291 291 290 290 290 290 290 290 290
302 300 293 294 297 300 299 299 298 299 298 298 297 295 295 294 294 293 294 293 292 292 292 293 294 295 295 293 291 291 295 295 295 296 295 294 294 295 294 295 295 296 296 295 296 297 298 297 297 297 298 298 298 294 297 297 296 294 294 293 293 292 293 293 293 293 293 292 292 292 293 292 292 292 291 291 290 291 291 291 290 290 290 290 290
300 296 295 296 295 299 298 297 298 295 296 296 296 296 293 293 295 294 292 293 292 292 293 294 295 297 292 289 289 289 294 296 296 296 297 296 295 294 294 294 295 295 295 296 297 297 296 297 296 295 296 295 296 295 295 295 295 295 294 294 293 293 293 293 293 293 292 293 292 292 292 292 292 292 292 290 292 292 292 291 291 291 291 291 291
299 297 297 297 297 298 297 297 297 297 296 296 296 293 294 295 294 292 291 292 294 293 293 292 291 290 289 287 288 287 292 296 291 295 295 295 294 293 292 292 293 294 295 296 297 297 296 294 295 295 296 294 297 296 296 294 295 295 295 294 294 293 293 293 293 293 293 292 292 291 291 291 291 292 292 291 291 291 291 291 290 291 290 291 290
299 298 297 296 297 297 297 297 295 295 295 293 293 292 292 293 293 293 293 292 292 291 292 292 292 291 291 289 288 289 291 292 291 292 292 291 291 289 291 291 291 292 292 293 294 294 295 294 294 293 298 297 298 299 297 296 296 295 295 294 294 293 293 293 293 294 294 294 293 292 292 291 291 292 291 291 292 291 291 290 290 290 291 291 291
300 298 297 297 296 296 295 295 294 294 291 291 292 292 291 293 292 291 291 291 289 290 290 290 289 289 289 290 290 291 291 293 289 289 289 289 289 290 291 291 291 291 291 291 292 294 293 293 292 292 293 295 296 297 297 297 297 294 295 295 294 294 294 294 294 295 295 293 293 293 293 293 293 293 293 293 292 291 291 291 291 288 290 290 290
301 299 298 297 296 295 294 295 292 293 292 292 292 292 292 292 292 291 290 291 290 290 290 289 289 288 288 289 290 290 290 290 289 288 288 288 288 289 290 290 290 290 290 291 291 292 291 292 291 292 293 293 295 297 298 298 297 297 298 298 296 295 296 297 296 295 294 293 293 294 294 293 293 293 291 293 294 293 292 291 291 291 291 291 291
301 299 297 297 296 294 294 294 293 293 293 293 293 293 292 291 291 290 289 290 289 289 289 290 289 288 288 288 287 287 287 287 288 288 289 289 289 289 289 289 289 289 290 290 290 290 290 290 291 292 292 291 294 297 297 297 296 295 296 297 297 296 296 295 295 295 295 294 293 293 293 293 293 293 292 292 291 292 291 291 291 291 291 291 291
299 298 297 297 296 295 294 294 293 290 293 292 293 292 291 291 291 290 290 290 289 289 289 289 289 288 287 287 287 287 287 288 289 289 289 288 288 288 288 289 288 289 289 289 289 290 290 290 290 291 291 291 291 291 293 294 295 296 295 296 296 295 294 291 294 295 295 294 294 292 292 292 292 292 292 292 292 292 292 292 292 292 291 291 291
299 298 297 296 295 295 293 293 293 293 293 293 292 291 290 290 290 291 290 290 290 289 290 289 289 288 288 288 288 288 289 288 288 287 287 288 288 289 289 290 289 290 289 288 290 290 291 291 290 290 291 291 291 291 292 293 294 294 295 295 293 288 287 287 289 292 291 291 292 292 291 291 291 291 291 291 291 292 292 292 292 292 292 292 292
298 297 297 296 294 294 294 293 294 295 294 293 292 291 290 290 291 290 290 290 290 290 290 289 289 289 289 289 289 288 288 287 288 288 288 288 288 289 289 289 289 289 288 289 290 289 291 291 290 291 290 291 292 291 292 292 292 292 291 290 285 284 285 285 285 286 288 291 291 292 292 292 291 291 292 291 291 290 290 290 290 290 290 290 290
296 297 296 296 295 294 294 294 294 295 294 293 292 291 290 291 291 291 291 291 291 290 290 290 290 289 289 289 289 290 289 289 289 290 289 289 289 289 289 289 289 290 290 290 291 291 291 292 292 292 291 291 291 290 290 289 287 285 283 283 283 283 283 284 286 285 285 286 290 291 292 291 290 290 290 290 290 290 289 289 289 289 289 290 290
Wind_Speed
10 10 10 11 13 13 12 11 13 9 11 10 10 9 9 9 9 8 8 8 9 9 9 9 9 8 9 8 8 7 7 7 6 6 6 7 7 8 8 9 10 9 9 9 8 9 9 9 8 8 7 8 7 7 7 7 7 7 7 7 7 7 6 6 6 7 6 6 6 7 8 9 8 11 10 10 10 9 10 11 12 12 12 11 11
10 10 11 11 13 13 13 12 12 11 10 10 9 9 9 9 8 8 9 9 9 9 10 9 8 9 8 8 8 8 7 7 7 6 7 8 8 6 8 10 10 9 9 9 8 7 8 9 9 9 8 9 8 8 7 7 7 7 7 8 7 7 7 5 6 6 7 7 7 7 7 9 8 11 10 11 11 10 10 10 9 13 12 11 11
11 11 11 12 13 13 12 11 12 14 11 10 10 10 9 9 8 9 9 9 9 9 9 9 9 9 9 8 8 8 8 7 6 7 8 9 8 8 8 10 10 10 9 9 9 8 9 8 9 8 7 9 8 7 7 7 7 8 8 7 8 7 7 7 5 7 7 8 7 8 9 10 10 11 11 9 9 9 10 10 10 9 10 12 11
9 11 11 12 13 14 12 12 14 13 10 9 11 11 10 9 8 9 9 8 9 8 9 10 10 9 9 9 8 8 8 7 7 7 9 9 9 9 9 9 9 9 9 9 9 8 9 9 8 8 8 9 8 8 7 7 7 7 8 7 7 7 7 7 7 6 7 7 9 9 8 8 9 11 9 8 9 9 8 8 9 9 10 9 10
11 11 11 12 13 13 14 14 14 11 10 9 11 11 10 9 7 9 9 9 9 9 8 9 9 9 8 9 9 9 8 8 9 8 8 8 8 9 9 9 8 8 8 8 8 9 8 8 8 8 8 9 8 8 8 8 7 7 7 7 7 7 6 7 7 7 7 8 7 8 8 7 7 8 11 10 10 9 8 9 9 9 9 9 8
11 11 11 12 12 13 13 13 12 12 11 11 12 11 10 9 9 7 9 10 9 9 10 8 8 9 9 9 9 9 8 8 9 9 9 8 8 8 8 8 8 8 7 8 8 7 7 7 7 8 8 8 8 8 8 9 7 8 8 7 7 7 7 7 7 7 7 8 8 7 9 9 8 8 10 9 10 10 10 9 9 9 10 10 10
12 12 11 11 11 13 13 13 11 11 11 10 9 9 9 9 9 9 7 10 10 10 9 10 8 9 10 9 9 9 9 8 8 9 9 9 9 9 8 8 7 6 6 7 6 6 7 6 7 7 7 8 8 8 8 8 7 8 7 7 7 7 7 7 7 8 8 8 8 8 8 8 8 9 10 10 8 9 9 9 10 9 9 11 11
12 11 9 9 11 12 13 11 10 9 9 9 9 8 8 8 8 7 9 9 10 10 11 10 8 8 9 9 9 8 8 8 8 9 9 8 8 8 8 8 8 6 6 5 5 6 6 6 6 6 7 7 7 7 7 7 7 7 6 6 6 7 7 7 7 7 8 9 9 9 9 9 8 8 8 9 9 10 10 9 10 10 10 9 11
12 12 11 10 11 13 9 8 8 10 9 8 8 8 8 7 7 8 7 7 7 9 10 10 10 9 8 8 9 7 7 7 7 8 8 8 8 8 8 8 7 7 6 6 5 5 6 6 5 6 7 8 8 7 7 6 5 6 6 6 6 7 7 7 7 7 8 8 8 9 9 10 10 10 11 11 12 11 10 9 8 9 8 8 9
13 13 15 13 12 10 9 9 8 9 9 9 8 8 8 8 8 8 8 8 8 9 9 9 10 10 10 9 8 6 5 4 6 9 9 8 8 6 6 6 7 7 6 6 5 4 4 5 6 9 9 10 8 8 10 11 10 7 6 5 6 6 7 8 7 7 8 9 9 9 11 11 11 11 11 10 9 10 10 10 10 10 10 9 8
12 13 14 14 12 11 11 10 9 10 9 8 8 9 9 8 9 9 8 8 9 9 9 10 9 9 10 10 9 6 5 5 10 8 9 9 8 7 7 6 5 6 6 6 6 5 4 5 5 7 9 9 8 9 10 10 10 11 11 10 9 7 6 8 8 8 8 9 8 9 10 10 12 10 10 9 9 10 9 9 9 9 10 11 12
14 13 12 11 11 12 11 11 10 9 9 9 9 9 9 9 9 9 9 9 8 8 9 9 9 9 8 9 8 7 6 9 11 10 10 9 7 7 6 6 5 5 5 6 5 5 5 4 4 4 5 7 9 8 9 9 10 10 9 9 9 10 10 7 6 8 8 8 9 9 9 9 10 10 10 10 10 10 9 9 9 9 10 10 10
15 14 11 12 12 11 11 12 11 9 9 10 9 9 10 9 9 9 9 8 8 9 8 9 8 8 9 10 8 7 7 10 11 11 10 9 8 7 6 6 6 5 5 5 6 6 5 5 4 3 4 6 7 8 9 8 7 8 10 10 8 8 8 9 9 6 6 7 8 9 8 7 9 10 9 9 9 9 9 9 9 8 8 10 9
8 10 11 12 12 11 10 10 11 10 9 9 9 9 10 9 9 8 8 8 8 8 8 9 8 8 8 9 8 7 8 10 11 11 11 10 9 5 6 5 5 5 4 4 4 5 5 6 6 5 5 5 5 7 7 7 7 6 5 5 5 5 5 4 3 3 5 6 6 7 6 6 7 8 8 9 10 10 9 10 10 8 8 8 7
11 10 14 12 12 11 10 10 10 9 9 9 9 9 9 9 9 8 8 9 9 9 9 9 8 8 8 8 7 7 6 11 11 12 11 11 9 6 6 5 4 4 3 3 3 3 4 4 6 7 6 6 5 5 7 6 5 4 4 4 4 4 4 4 5 4 4 4 4 5 5 5 5 7 8 8 9 7 6 8 9 7 6 4 4
13 10 9 12 13 12 10 9 9 9 10 10 10 9 9 10 11 9 8 7 6 7 6 7 9 8 8 8 7 7 7 10 11 12 12 12 10 6 6 6 5 5 4 3 3 3 3 4 5 6 6 6 5 3 3 4 5 5 4 4 3 3 3 3 2 4 5 4 3 4 4 3 4 5 6 7 8 9 6 7 7 8 7 7 8
15 14 12 11 12 13 11 10 10 10 11 11 11 11 11 10 8 7 8 7 7 7 7 7 7 8 8 8 8 7 8 9 10 12 13 13 9 7 6 6 5 5 4 4 3 3 3 3 4 6 6 6 7 7 5 7 5 4 4 4 3 3 3 2 4 1 2 3 1 1 1 1 0 3 6 7 7 8 7 9 11 9 10 10 9
15 13 10 11 15 14 14 13 11 11 11 12 12 9 8 7 9 8 9 9 8 7 7 7 6 7 8 9 8 9 8 9 11 12 13 12 9 8 7 7 6 5 5 3 3 3 3 1 2 5 6 6 8 7 7 6 4 4 4 3 3 3 3 2 2 2 4 4 4 3 1 2 2 3 6 7 8 8 9 10 10 8 9 9 9
14 15 11 10 11 14 14 13 12 11 9 8 9 11 10 9 8 7 6 7 7 7 6 7 6 5 6 6 8 9 8 9 10 12 12 11 9 8 7 7 7 5 5 4 3 3 4 3 2 2 3 7 9 8 8 7 3 4 3 2 3 3 3 1 1 1 2 2 2 2 2 1 1 3 3 2 4 6 6 7 7 8 9 9 9
9 10 11 12 10 10 11 13 12 11 13 13 9 9 8 7 8 7 6 5 6 6 6 6 7 6 5 6 7 6 9 8 10 11 12 11 9 8 7 8 8 7 6 6 5 4 4 4 3 3 4 7 8 7 6 5 3 4 2 1 2 3 2 1 2 2 2 2 1 1 2 2 2 2 3 3 4 4 5 5 6 7 7 8 8
10 10 11 12 12 13 11 11 14 13 12 10 8 7 7 9 9 8 9 6 6 6 6 6 6 6 6 6 6 6 7 9 10 11 11 11 9 8 8 8 8 8 7 7 6 6 5 4 3 4 3 6 6 7 6 4 3 3 2 1 2 3 1 2 2 5 0 1 0 1 3 3 3 4 3 4 4 4 4 4 4 5 6 7 8
13 13 11 10 9 9 9 10 11 11 10 10 9 8 7 8 9 9 8 9 8 7 6 6 6 5 5 5 5 6 6 8 10 9 11 10 10 7 6 7 7 8 7 6 6 5 5 4 4 4 4 5 6 6 6 6 3 3 2 5 4 2 2 1 1 1 1 1 2 3 3 4 5 5 5 4 4 5 4 4 4 4 4 4 5
8 8 9 10 10 10 10 12 10 10 11 11 11 10 9 9 7 7 10 9 8 7 7 6 6 6 5 5 5 5 7 6 9 9 9 10 9 6 4 7 3 6 7 7 6 5 4 4 4 5 5 6 6 6 6 6 5 3 6 5 5 3 2 2 1 2 1 2 2 2 3 3 4 5 5 5 5 5 5 5 5 5 4 3 3
10 10 9 10 10 11 12 12 10 9 12 12 11 11 11 9 9 7 6 9 10 9 5 5 5 6 7 6 5 5 6 6 6 8 8 9 8 6 6 8 8 6 6 6 6 5 5 4 5 7 6 7 7 6 5 2 4 6 5 5 5 4 3 2 3 1 1 1 2 2 3 3 3 4 4 4 4 4 4 4 4 3 3 3 3
12 10 8 9 10 9 8 7 9 9 10 11 10 10 10 10 9 7 8 7 9 9 9 7 7 6 6 7 7 6 6 6 7 6 8 8 7 7 7 8 6 3 6 5 5 5 5 9 9 7 7 7 8 8 7 6 5 5 5 4 5 4 3 3 1 2 1 1 1 1 1 2 2 2 2 3 4 4 3 3 3 2 2 2 1
10 12 10 9 9 10 8 7 9 11 10 8 8 8 10 9 8 9 9 8 9 9 10 8 6 6 6 7 7 7 6 6 7 7 6 6 5 6 6 7 8 5 3 5 5 7 8 9 8 8 6 6 5 3 3 3 4 4 3 4 4 2 3 2 2 1 1 1 1 2 2 1 1 1 2 2 3 4 4 5 5 5 6 6 4
10 11 12 11 11 9 9 10 10 10 8 7 7 8 8 8 8 8 7 8 7 7 8 8 7 6 7 7 7 6 7 7 7 8 8 7 7 6 5 5 3 5 6 5 5 5 6 6 5 4 5 4 4 5 5 5 4 4 3 3 2 2 2 2 1 1 1 1 1 1 1 1 1 2 1 1 2 3 3 4 5 5 6 6 5
13 13 13 12 10 10 9 12 12 9 9 9 8 7 6 8 8 9 9 9 9 9 9 8 7 7 7 7 7 7 7 8 8 9 9 9 8 8 8 7 7 7 7 6 5 6 6 5 6 5 5 4 4 4 3 3 2 3 3 3 2 1 2 2 1 1 0 1 1 1 1 2 2 2 2 2 2 2 2 3 4 5 5 5 5
10 13 13 11 10 8 9 10 10 11 11 6 4 8 10 10 10 10 8 9 11 13 12 9 8 9 9 9 9 9 9 10 10 9 9 10 7 9 8 8 7 6 5 8 5 4 5 6 6 5 5 3 4 3 3 3 3 3 2 3 3 3 4 4 2 1 0 2 1 2 2 3 2 2 2 2 2 2 2 3 2 4 5 4 5
13 13 12 12 10 9 9 9 10 9 9 9 8 4 7 5 1 6 7 6 1 4 4 8 10 9 9 8 10 12 13 11 12 14 12 12 12 12 10 9 7 6 8 10 7 6 7 5 6 6 6 5 4 3 3 3 3 3 4 2 3 4 3 3 3 1 1 2 2 2 3 3 3 3 3 3 3 2 1 1 3 4 5 5 5
9 10 10 9 10 9 9 9 7 7 7 8 7 7 6 4 8 6 4 4 3 2 4 4 3 7 8 8 8 3 6 9 15 15 14 14 14 12 10 10 9 10 12 7 2 4 4 5 5 4 6 6 3 5 4 3 2 2 3 4 4 4 3 5 3 2 2 1 2 2 2 4 4 4 4 4 4 5 3 2 2 3 4 5 5
11 9 9 8 9 9 8 8 9 8 9 9 8 8 7 7 4 5 3 7 6 5 5 5 6 9 10 7 6 5 5 9 13 15 16 15 14 12 11 11 11 12 13 10 4 4 5 6 5 5 7 6 4 5 5 4 4 4 4 3 3 5 5 5 3 3 2 3 2 2 2 3 5 3 5 5 5 5 4 4 4 4 5 4 4
12 11 9 9 9 9 9 8 9 9 11 10 8 8 9 8 8 6 2 3 5 8 7 7 8 9 10 8 8 7 8 11 14 14 14 15 14 14 13 12 12 12 10 5 6 6 5 8 7 7 7 5 7 6 6 6 5 5 5 5 4 5 5 2 2 4 3 4 2 3 3 3 3 4 3 4 4 4 3 3 4 4 4 4 4
11 12 12 13 12 10 9 8 8 8 7 8 9 10 9 8 8 6 6 5 3 1 3 7 9 10 10 9 10 6 7 11 13 15 15 15 14 13 11 7 7 10 9 7 5 5 6 7 8 7 7 7 6 6 6 6 6 6 6 6 6 5 4 2 4 5 3 3 3 3 3 3 3 3 4 4 3 3 3 3 4 3 3 3 3
8 7 12 12 11 11 10 9 9 8 8 8 8 8 8 6 7 9 9 8 6 6 6 5 6 10 8 7 9 8 9 11 12 13 14 14 14 14 12 7 4 4 4 6 7 7 8 8 8 7 7 7 7 6 6 6 6 6 6 6 6 6 5 4 5 5 4 3 3 4 3 3 4 3 4 4 4 5 5 4 3 4 5 3 3
8 8 9 10 8 8 9 9 9 9 9 9 8 7 7 7 7 7 8 8 7 7 5 5 6 6 7 7 10 9 9 10 11 11 12 13 15 16 9 7 6 7 8 8 8 8 8 8 8 7 7 6 6 6 6 6 6 6 6 6 5 6 4 3 3 3 4 4 4 4 3 3 4 3 3 4 6 5 5 4 4 4 4 4 4
6 7 8 7 6 6 7 7 8 8 7 6 6 6 7 7 6 4 5 6 6 5 5 6 6 6 4 5 6 7 9 10 10 11 11 12 14 11 10 10 10 9 9 8 8 7 7 7 7 7 6 6 6 6 5 5 5 5 5 5 6 5 4 4 3 3 3 4 4 4 3 4 4 3 4 4 4 4 4 4 4 4 4 4 4
7 8 8 8 7 7 7 7 7 9 8 7 8 7 6 6 7 7 6 5 6 5 6 6 7 7 8 7 9 6 7 9 11 8 6 6 5 6 7 6 7 8 8 8 7 7 8 7 6 6 6 6 6 5 5 5 5 5 5 5 3 4 4 3 2 4 3 4 5 4 4 4 4 4 4 4 5 5 4 4 5 5 5 4 4
5 6 8 10 9 8 7 7 7 7 6 6 6 7 7 7 6 5 5 4 5 5 5 5 6 6 7 7 8 9 10 7 6 7 7 6 5 6 6 6 6 7 7 8 6 6 7 7 6 5 5 5 5 5 5 6 5 4 5 3 3 3 3 4 4 4 4 5 5 5 5 5 4 4 4 4 5 5 5 5 5 5 5 6 6
6 5 6 10 7 7 7 7 7 7 7 7 6 6 6 7 7 8 7 6 5 5 5 6 6 6 7 8 9 9 10 9 7 7 7 8 8 9 8 8 8 7 7 7 6 6 6 6 5 4 4 5 5 5 5 6 5 3 3 3 4 4 4 5 5 5 5 5 5 5 5 5 5 4 4 4 5 5 5 5 5 5 5 6 6
5 5 6 7 6 6 6 6 7 7 7 6 6 7 7 8 7 7 7 7 6 6 5 5 5 6 7 10 13 13 9 9 9 9 9 9 7 8 7 7 6 7 6 6 6 6 6 6 6 5 5 5 5 3 5 5 3 3 3 3 4 4 4 4 4 5 5 5 5 5 5 5 5 5 5 5 6 6 5 5 5 5 5 5 5
5 5 6 5 7 6 6 6 6 6 6 7 7 7 7 7 7 6 6 6 5 6 6 5 5 4 6 12 13 14 7 5 6 7 7 7 7 7 6 6 5 5 6 6 6 6 5 5 4 3 3 3 3 3 3 3 3 3 4 4 4 4 5 5 5 5 5 5 5 5 5 5 5 5 6 7 6 5 5 5 5 5 6 6 6
6 6 6 6 6 6 6 6 6 6 6 6 6 6 6 6 6 7 7 7 6 5 5 3 1 2 3 5 8 8 5 4 5 6 6 5 5 3 4 5 4 4 5 4 4 4 3 3 3 3 3 3 4 3 3 4 3 4 4 4 4 4 5 5 4 5 5 5 5 5 5 5 5 5 6 5 6 6 6 6 5 6 6 6 6
6 5 5 5 5 4 4 5 6 6 5 5 5 6 5 5 6 6 6 5 5 4 3 4 4 4 4 5 6 7 7 6 4 4 4 3 3 3 4 3 3 4 4 4 4 4 4 3 3 3 4 3 3 3 3 3 3 4 4 4 4 5 5 5 5 5 5 5 5 4 5 6 6 6 5 6 6 6 6 6 6 6 6 7 6
5 5 6 6 5 5 5 4 5 5 6 5 5 4 5 5 6 5 4 4 5 4 3 3 3 4 4 5 6 7 6 5 4 3 3 3 4 4 4 4 4 5 4 3 3 4 2 2 3 3 3 2 3 4 4 5 4 3 4 5 5 5 6 6 6 6 5 4 5 6 6 6 6 6 6 6 5 5 6 6 7 8 7 7 7
6 6 6 5 6 5 5 5 6 5 6 6 6 5 4 4 4 4 4 3 4 4 4 4 3 4 4 5 5 5 5 4 4 3 3 2 3 3 4 4 4 5 3 3 3 4 3 3 3 4 4 3 5 5 5 4 5 5 6 6 6 6 6 5 5 4 4 4 5 5 5 5 6 6 7 6 5 5 6 6 6 6 7 7 7
6 5 6 5 6 6 6 6 5 6 5 6 5 6 4 3 3 4 4 4 4 4 4 3 3 3 3 2 2 2 3 3 3 4 5 5 4 4 4 4 3 3 3 3 3 3 3 4 4 3 3 3 3 5 5 4 3 4 3 4 5 6 4 3 3 3 4 4 4 5 6 6 7 6 6 7 6 7 7 7 7 7 8 8 8
5 6 6 6 5 6 5 6 6 7 5 5 5 5 5 5 5 4 4 4 4 3 3 2 2 2 2 3 3 4 4 4 4 4 4 4 5 5 5 4 3 3 2 2 2 2 2 2 3 3 3 3 2 2 3 3 3 3 4 4 4 4 5 5 5 7 5 4 4 5 5 7 7 8 8 7 7 8 8 8 8 8 8 8 8
7 7 6 7 6 5 5 5 6 5 6 6 6 5 5 5 5 4 4 4 4 3 3 3 3 3 2 2 2 1 1 2 2 3 3 4 4 4 4 5 4 4 3 3 2 1 1 1 2 2 2 2 2 2 2 4 4 4 4 5 3 6 6 6 6 7 7 5 5 5 6 6 7 8 8 8 8 8 8 7 8 8 7 7 7
6 6 7 6 6 6 6 6 6 7 6 5 5 6 5 4 4 4 4 3 3 2 2 2 2 2 2 2 3 3 3 4 4 4 4 4 3 2 2 2 3 2 2 2 2 1 1 2 2 2 2 2 1 1 1 2 3 4 4 6 10 9 8 8 7 8 6 4 5 5 5 6 6 7 7 7 7 6 7 8 8 7 8 9 9
5 6 6 6 6 6 6 6 6 6 7 6 5 5 6 4 3 3 3 3 3 3 2 2 2 3 3 3 3 3 3 3 2 1 1 1 1 1 2 3 4 4 4 3 2 2 2 1 0 0 1 2 3 3 4 5 6 6 8 10 11 10 9 8 5 6 7 6 4 4 5 5 5 6 6 5 5 6 6 8 8 8 8 8 8
Wind_Direction
165 157 160 164 163 164 167 163 161 153 146 149 141 135 131 133 137 133 131 135 139 138 136 137 137 134 134 134 131 128 126 123 119 115 108 104 99 99 102 100 99 99 99 91 86 85 83 80 73 66 62 61 56 55 50 45 45 45 43 45 44 33 24 37 52 60 46 22 19 9 8 358 18 10 10 11 13 16 16 24 24 23 21 19 21
164 162 163 165 165 166 165 164 163 157 145 143 132 131 135 136 133 132 134 139 144 140 140 139 140 140 136 135 132 129 130 127 127 121 116 110 104 103 103 103 104 105 102 96 91 86 86 83 78 70 62 63 59 55 50 49 46 48 46 44 44 40 22 28 47 44 42 22 14 14 15 15 17 14 11 10 12 14 20 16 19 24 24 19 21
166 168 169 165 166 163 158 157 161 162 147 143 137 136 136 135 140 137 138 140 142 142 141 144 144 141 137 136 134 132 133 131 127 125 118 115 113 109 108 108 109 110 107 104 100 95 90 86 83 76 71 69 64 58 54 55 54 57 54 49 49 42 36 28 29 42 39 39 16 16 14 15 18 8 7 10 11 13 18 21 16 20 25 23 23
157 168 168 168 162 158 151 157 162 159 146 141 138 139 141 142 143 137 137 138 140 139 143 147 146 144 140 140 138 138 137 133 129 125 121 120 119 115 112 110 110 110 111 109 103 98 94 90 85 81 77 73 66 64 57 56 57 57 58 55 53 47 38 38 35 40 35 41 29 24 17 12 13 10 3 7 12 18 18 17 15 17 16 16 19
164 169 168 167 164 158 156 159 161 150 144 140 141 142 143 142 141 138 135 135 137 140 144 148 148 149 147 147 143 142 141 138 132 127 122 122 120 118 116 114 113 112 108 105 100 100 95 90 88 84 80 76 72 67 61 58 57 56 56 57 54 51 48 41 43 42 44 41 37 32 20 22 18 15 10 7 10 18 21 24 18 16 16 18 17
166 167 165 161 164 159 155 156 152 152 147 145 146 146 145 144 141 137 140 137 140 146 149 153 156 153 151 148 145 142 142 139 135 133 129 126 122 119 118 118 117 116 111 107 104 99 97 93 89 88 83 81 78 73 68 63 59 58 56 53 55 53 49 47 43 42 44 47 38 34 30 18 16 25 14 10 12 9 12 20 27 23 18 17 19
167 167 165 159 159 161 158 158 150 152 149 146 143 143 144 142 142 142 140 140 146 150 154 153 155 154 151 147 146 144 142 141 136 135 134 133 131 127 124 123 122 114 110 106 103 101 98 96 97 96 93 88 85 81 80 74 65 61 55 54 52 51 51 47 44 45 43 42 45 37 30 30 19 12 10 12 20 22 7 6 21 19 25 20 12
166 156 133 155 161 163 164 152 145 144 139 136 135 135 134 135 134 135 141 143 148 152 154 155 151 153 149 147 143 143 144 141 139 138 138 138 138 137 133 132 129 123 113 108 105 102 100 100 99 100 102 99 92 87 82 81 74 67 58 56 51 50 49 47 45 43 42 43 39 34 32 23 22 21 14 13 16 20 18 7 11 6 11 24 25
164 156 143 162 168 163 148 128 133 134 133 127 121 125 129 128 133 139 143 142 144 149 151 150 149 147 146 144 143 144 147 145 146 146 141 143 143 142 142 139 139 134 128 117 109 108 106 100 103 103 93 81 58 57 46 27 64 74 60 53 51 50 50 48 47 45 46 44 44 39 36 30 23 18 17 17 16 9 0 5 11 10 5 20 28
165 161 163 165 163 153 132 130 132 131 131 133 132 131 134 139 142 144 144 145 142 143 146 150 152 151 149 146 146 147 147 146 137 143 147 147 147 142 141 143 145 145 140 131 117 109 106 109 93 97 104 100 93 88 79 66 47 46 48 41 43 54 53 49 46 46 46 45 39 35 36 33 23 19 18 13 6 4 7 8 11 7 12 19 31
167 164 164 163 155 140 138 139 137 136 133 128 133 138 141 143 146 146 143 142 143 143 146 148 152 154 154 152 151 152 146 137 135 139 133 136 141 144 148 146 147 152 154 151 139 130 125 122 125 122 117 111 101 97 94 92 89 81 66 48 29 24 48 55 51 41 48 49 41 38 38 34 28 22 19 8 10 11 9 9 10 13 18 16 14
169 170 158 146 143 145 141 142 141 136 135 138 142 143 143 146 147 147 143 141 141 143 148 152 150 150 150 153 153 152 147 133 147 143 144 144 141 142 143 147 153 156 159 155 144 143 138 138 132 136 136 131 129 117 104 99 97 91 83 73 63 48 32 27 35 52 45 51 46 39 36 34 31 26 16 9 4 8 12 14 15 16 20 24 21
172 170 154 148 148 148 144 144 144 143 143 142 138 140 144 143 143 143 145 144 143 148 148 145 149 152 154 155 154 149 143 145 152 150 146 142 134 143 147 148 158 156 156 157 149 149 149 144 143 134 125 145 146 133 127 117 104 108 113 107 84 66 57 43 18 16 42 50 50 47 31 18 32 28 13 357 359 14 12 18 12 19 24 27 19
160 154 152 152 148 148 145 137 141 143 139 135 136 136 140 143 140 140 137 140 144 139 143 146 147 156 159 157 152 149 145 153 155 152 145 142 146 145 142 147 148 151 156 155 153 152 157 158 155 154 156 170 153 149 142 139 140 140 130 103 98 116 119 115 114 49 22 42 44 49 35 19 27 12 6 359 9 13 14 14 5 9 6 11 13
164 165 164 151 148 146 142 137 134 135 135 133 132 133 135 135 138 141 147 151 151 151 153 153 155 158 158 155 150 149 140 148 155 150 145 145 141 140 138 139 145 141 145 147 154 143 162 170 165 161 165 171 167 168 154 151 142 129 120 108 93 76 62 53 37 29 37 37 47 52 44 27 18 15 7 3 4 358 355 351 346 338 341 5 50
159 165 170 152 146 144 138 131 127 130 133 136 136 137 141 149 150 151 147 145 143 143 146 152 154 157 155 153 148 144 137 152 154 152 146 145 146 148 146 148 146 146 145 152 155 155 164 176 166 164 170 174 154 219 246 168 149 133 120 114 106 96 77 76 9 330 333 351 33 47 49 40 355 26 14 0 358 352 1 13 11 12 14 23 24
169 169 168 154 144 146 144 136 137 139 145 146 148 153 157 156 146 143 137 142 147 153 153 154 155 154 154 158 150 141 145 164 160 154 150 152 158 154 151 155 147 146 146 147 161 155 169 180 179 169 170 172 157 191 217 250 146 136 117 113 103 88 75 101 145 202 277 285 320 98 25 293 279 59 29 11 357 333 3 18 16 6 18 18 17
173 165 168 154 150 147 149 150 146 152 152 157 157 148 137 139 149 154 148 149 155 156 153 149 151 156 159 160 157 147 152 159 166 158 156 167 166 157 162 159 149 146 142 152 157 153 113 83 231 179 174 163 156 185 194 235 165 136 132 118 100 89 89 100 143 148 195 214 175 171 102 3 297 157 60 10 2 356 18 21 358 0 19 17 12
172 171 158 156 150 147 149 153 154 151 144 135 143 149 154 155 154 151 139 139 140 143 149 146 146 149 155 152 140 145 147 155 169 162 162 167 166 163 167 163 160 158 156 152 160 151 138 127 10 293 176 137 156 172 196 237 182 150 137 121 93 88 82 85 106 119 136 169 126 180 151 171 320 6 53 119 16 19 21 10 358 9 11 13 11
167 150 143 150 158 151 151 145 143 144 151 168 162 151 136 122 140 139 131 128 131 141 144 145 148 148 144 147 156 154 148 156 169 169 165 170 178 169 170 168 167 160 163 161 157 153 146 141 126 86 112 140 156 165 187 250 253 158 171 122 100 101 129 121 35 8 79 41 53 52 52 29 16 15 13 14 20 27 15 8 7 359 3 8 11
141 148 158 160 160 159 158 149 148 151 159 152 142 118 134 142 140 141 136 128 131 136 142 141 140 138 151 154 156 158 156 157 163 172 166 169 176 177 171 173 163 164 165 164 167 161 163 148 132 102 142 138 147 149 156 185 279 197 193 108 44 66 130 167 133 259 141 109 71 60 48 47 49 40 32 27 15 6 357 359 358 355 356 359 2
156 157 153 154 146 147 148 145 142 143 142 138 131 130 130 141 148 141 143 144 141 140 138 142 142 139 143 147 152 159 151 159 158 171 166 166 175 202 181 167 164 163 165 169 167 168 164 152 143 127 143 129 125 129 134 149 194 220 72 70 87 143 220 164 210 245 336 351 16 34 32 31 35 41 36 33 23 3 342 339 334 330 338 341 348
125 130 136 139 145 143 143 140 149 149 144 149 142 137 142 141 138 146 143 136 129 131 144 146 144 144 146 154 157 160 161 166 163 163 166 167 173 205 205 156 172 182 171 171 172 160 153 134 116 123 143 130 126 122 126 139 184 92 112 131 127 131 234 221 273 290 356 2 359 24 28 27 26 34 32 24 18 1 346 343 332 325 315 298 282
133 137 139 144 146 151 153 157 151 140 148 151 145 141 145 143 141 147 144 144 145 145 145 147 149 152 157 157 162 169 170 171 168 169 161 170 168 180 172 159 173 189 175 168 166 153 156 157 129 139 140 131 121 111 95 73 85 119 137 128 151 202 235 225 233 324 297 344 344 9 23 23 18 27 29 7 348 343 328 318 326 327 330 326 289
137 138 146 150 151 146 144 139 145 142 148 151 148 146 136 139 140 143 144 145 153 154 156 166 167 165 163 163 168 173 176 176 168 169 159 163 168 169 179 171 188 186 161 155 161 162 102 104 123 143 138 129 125 125 110 90 97 110 121 158 203 211 222 255 283 267 304 340 351 344 20 24 17 1 345 319 301 283 302 325 314 302 306 262 235
139 147 147 148 144 145 136 121 139 151 144 149 147 151 151 155 149 152 156 157 163 162 162 171 169 169 170 168 171 175 174 178 177 165 162 157 170 174 188 186 178 203 167 135 120 108 132 136 130 130 144 157 171 168 147 105 90 101 118 225 221 225 236 229 227 253 306 333 357 343 355 350 333 12 288 264 291 9 355 345 340 4 356 356 353
137 144 150 150 155 152 145 148 154 151 146 140 148 151 155 151 147 148 154 153 159 168 173 167 171 177 175 173 170 173 176 185 184 174 176 174 180 164 178 189 172 146 151 141 139 147 149 159 150 120 80 70 59 80 106 141 169 174 182 204 215 227 219 241 269 287 287 304 322 330 348 330 270 236 254 320 353 20 4 336 338 354 350 346 341
150 155 155 157 156 152 147 144 145 150 156 152 150 149 154 158 155 160 166 167 166 174 172 178 177 179 181 175 175 180 189 194 191 183 178 179 177 175 182 180 180 183 173 165 173 158 154 119 123 159 156 170 171 181 175 181 180 193 202 205 205 141 54 44 269 240 256 321 300 285 262 268 280 341 327 319 1 13 8 343 350 340 345 336 339
147 154 156 156 152 145 147 153 156 154 156 151 139 166 169 173 173 180 187 176 176 172 176 188 186 185 177 176 178 187 197 200 200 182 173 175 173 179 184 186 185 182 155 133 127 141 157 172 176 177 190 195 197 198 185 196 196 198 207 226 211 206 215 233 231 223 320 256 288 312 312 306 305 306 310 320 357 354 9 336 341 333 332 329 341
154 160 161 163 155 144 146 154 161 153 154 157 151 114 35 50 143 169 170 170 196 301 206 190 189 181 186 190 186 188 198 203 159 163 169 172 182 189 188 177 171 158 141 159 166 175 186 190 190 191 195 203 207 206 204 210 212 212 213 206 236 238 239 243 252 244 217 273 301 285 307 311 302 318 319 333 329 330 87 319 329 331 325 345 338
152 155 160 161 155 148 148 156 153 158 157 155 140 137 138 83 56 73 119 130 170 168 204 261 252 214 199 188 200 248 26 107 155 171 169 178 186 189 180 166 159 149 147 140 190 186 187 198 198 202 201 211 213 216 217 219 228 233 240 225 235 236 239 248 251 241 239 260 258 288 291 293 306 309 317 321 325 316 321 291 303 307 329 333 333
160 159 157 146 147 153 152 149 153 155 166 169 159 157 154 150 138 50 100 167 161 182 191 191 192 194 214 229 190 183 152 160 168 174 180 178 183 181 173 167 166 161 173 172 177 193 197 203 205 208 207 212 219 225 226 231 233 239 241 246 244 240 238 249 227 242 253 251 264 270 273 289 296 305 304 309 312 308 310 322 320 326 323 320 324
158 158 156 153 158 156 156 148 156 159 168 168 167 169 166 169 165 163 79 76 166 175 183 182 186 193 194 204 204 207 185 175 175 179 181 179 176 179 174 173 171 172 157 186 209 205 202 211 211 210 208 216 220 223 226 230 238 240 246 248 253 250 245 229 120 245 253 260 273 276 281 279 284 288 290 286 292 302 310 306 306 309 308 313 318
158 164 164 166 164 166 163 162 164 169 162 167 175 178 179 172 168 144 142 145 108 100 190 188 186 184 193 187 185 183 161 172 178 178 179 178 175 163 151 150 156 173 187 199 202 209 199 211 217 215 214 220 226 221 224 230 233 239 244 246 253 260 259 221 235 241 245 236 240 258 264 272 280 286 291 297 290 289 291 291 297 302 314 316 315
156 142 150 161 170 173 167 169 170 166 167 175 178 178 174 165 156 163 168 163 171 181 186 184 186 187 183 178 183 171 169 172 177 178 175 172 163 151 134 132 151 190 226 221 209 211 210 209 216 214 216 216 220 223 227 231 231 232 240 246 249 250 251 244 245 247 247 246 251 254 262 270 276 277 287 291 296 297 300 303 299 302 303 308 311
157 157 166 171 163 163 168 167 167 170 174 182 178 167 154 155 163 173 175 176 177 172 165 175 166 168 180 176 170 169 163 170 172 171 171 167 161 154 170 187 189 196 201 203 207 214 219 218 217 218 214 220 220 219 226 231 234 238 243 245 251 253 252 254 248 247 245 253 259 263 259 261 261 270 275 272 269 266 274 283 291 292 291 292 304
159 160 168 177 174 161 157 159 169 169 167 148 146 157 162 157 160 164 176 174 169 162 163 147 144 135 157 173 156 147 149 151 155 156 162 169 178 182 198 194 204 203 208 210 207 212 215 221 220 224 220 219 222 225 223 227 233 237 235 243 251 254 257 258 265 259 257 257 257 251 247 261 264 263 267 277 281 280 276 275 276 279 279 284 284
173 172 175 173 166 163 166 173 159 148 156 158 168 162 155 161 170 171 177 177 166 156 160 165 172 173 173 171 156 156 123 113 107 102 119 141 182 210 211 209 208 215 214 222 217 217 223 227 218 223 227 225 227 222 224 229 225 231 229 228 233 243 252 263 251 250 249 262 262 257 252 252 248 253 250 254 269 277 281 279 281 286 285 247 242
171 159 154 153 166 171 171 159 149 156 150 154 160 157 160 158 157 156 172 166 170 181 173 161 178 181 173 153 157 138 134 157 176 183 178 185 191 201 207 204 210 215 218 222 218 216 232 231 227 223 230 230 227 227 225 230 226 226 225 228 234 238 224 238 241 234 240 247 254 256 257 260 260 259 256 262 263 263 265 269 269 271 275 282 283
141 139 150 156 165 172 169 160 154 158 154 156 153 157 147 164 170 171 166 164 183 178 171 179 189 183 165 155 155 163 182 179 185 187 187 188 194 200 204 208 207 210 208 213 213 214 217 232 234 227 225 228 229 232 229 228 228 227 221 225 236 236 234 241 248 249 249 246 252 257 257 254 257 257 254 254 261 264 263 263 269 268 269 277 282
140 134 147 172 167 158 156 153 168 170 161 163 151 161 172 173 170 164 167 173 175 177 189 196 194 183 173 176 174 178 182 184 187 193 193 192 193 197 202 209 207 208 208 208 208 209 215 220 225 228 234 234 232 230 231 228 229 226 228 226 229 240 244 239 238 245 244 247 249 252 253 251 253 253 253 254 245 251 257 258 259 263 263 260 261
137 132 150 151 151 165 161 170 163 153 153 153 161 167 161 168 164 168 169 170 171 183 192 202 193 191 164 170 182 190 194 192 188 196 198 195 198 203 202 206 211 212 209 211 210 211 214 220 226 229 232 231 231 234 231 230 226 229 226 227 230 232 237 242 236 231 234 244 242 239 246 248 253 255 254 257 261 255 252 252 254 258 263 266 268
153 149 154 147 163 173 171 162 153 158 157 165 168 163 155 151 154 159 165 175 177 182 199 206 66 62 131 165 173 186 229 228 210 207 205 201 201 194 196 210 212 214 224 226 220 218 218 224 227 231 232 237 238 239 240 243 235 237 234 231 233 234 237 244 246 240 235 234 238 238 234 244 246 244 248 242 238 247 251 249 249 253 254 256 259
151 148 148 151 154 131 130 144 159 162 165 143 127 142 143 145 152 162 174 177 169 155 164 182 179 180 169 152 161 182 211 212 190 196 193 186 194 205 214 207 208 216 222 221 220 214 221 221 226 230 228 235 239 244 248 251 249 245 248 243 238 234 238 239 241 243 241 240 236 234 237 235 237 246 245 242 241 240 243 240 244 248 253 258 258
145 153 151 158 155 145 133 134 133 136 129 130 136 132 154 157 166 168 149 154 137 144 161 167 166 174 171 171 182 195 203 200 182 174 189 186 192 206 211 209 209 213 216 213 206 195 203 224 228 231 227 230 224 232 236 237 233 237 242 242 248 244 238 231 233 238 238 235 247 248 246 244 236 236 239 238 232 231 242 242 241 245 246 248 250
157 155 156 150 145 142 139 139 137 132 143 153 149 147 153 163 159 150 149 147 156 156 159 162 170 177 185 185 191 191 191 184 186 185 173 190 198 211 207 214 212 214 216 216 204 183 205 205 208 219 220 223 224 229 232 228 227 231 234 234 238 243 248 250 251 246 244 239 248 259 263 261 254 253 250 259 258 249 243 241 245 243 245 244 240
147 152 151 150 148 148 146 139 137 149 143 143 144 150 148 144 124 120 128 145 148 152 156 167 177 186 192 179 161 157 157 169 186 183 190 200 200 206 201 205 209 217 219 218 214 199 197 206 218 217 220 226 234 239 247 243 240 242 247 260 264 272 275 288 303 291 276 265 255 254 258 262 265 264 253 238 241 244 241 240 239 234 234 241 245
147 147 149 142 140 143 137 136 137 141 135 141 133 132 136 136 141 148 146 152 161 153 143 143 170 174 180 180 177 175 181 188 190 191 189 190 205 209 208 210 217 226 232 235 233 227 225 218 217 229 242 245 250 267 279 296 289 292 277 280 273 272 288 297 280 273 266 262 252 243 237 246 252 252 253 245 241 246 243 245 238 239 237 235 239
155 154 149 149 143 134 143 138 140 140 143 135 131 130 135 144 152 146 145 149 146 142 149 166 181 188 191 188 173 175 191 185 198 201 204 210 210 203 197 211 216 224 222 230 237 245 245 258 253 261 260 267 259 260 270 274 291 290 296 288 335 345 313 291 281 281 289 282 268 259 253 248 248 250 254 255 255 256 256 260 262 265 266 264 257
138 141 143 134 134 136 133 139 140 143 137 130 129 132 141 143 142 142 144 137 140 147 162 164 167 163 148 175 177 192 193 198 211 218 215 207 188 184 186 223 240 237 240 244 247 246 238 228 220 218 228 240 259 280 310 330 348 3 357 7 6 351 343 324 288 274 270 259 258 257 260 260 259 261 264 266 268 265 264 265 266 268 267 266 265
112 114 123 129 130 134 133 132 129 129 130 127 129 140 142 133 132 134 137 147 156 165 163 160 152 154 176 196 171 179 205 225 201 206 321 358 335 254 235 226 226 223 221 214 218 217 219 222 218 53 48 48 50 48 47 44 40 34 33 27 24 17 11 3 353 336 313 286 270 264 261 261 264 269 274 276 275 273 271 272 269 266 269 270 272